Weather History for Glasgow, MT

Change the Weather History Date:

Friday, January 25, 2013

  Actual Average Record
Temperature  
Mean Temperature 16 °F 14 °F  
Max Temperature 22 °F 24 °F 50 °F (2012)
Min Temperature 10 °F 5 °F -48 °F (1943)
Degree Days  
Heating Degree Days 49 51  
Month to date heating degree days 1226 1290  
Since 1 July heating degree days 4756 4792  
Cooling Degree Days 0 0  
Month to date cooling degree days 0 0  
Year to date cooling degree days 0 0  
Moisture  
Dew Point 13 °F    
Average Humidity 85    
Maximum Humidity 92    
Minimum Humidity 77    
Precipitation  
Precipitation 0.00 in 0.01 in 0.61 in (1916)
Month to date precipitation 0.46 0.32  
Year to date precipitation 0.46 0.32  
Snow  
Snow 0.00 in 0.20 in 7.00 in (1916)
Month to date snowfall 10.8 6.8  
Since 1 July snowfall 33.4 21.4  
Snow Depth 1.00 in    
Sea Level Pressure  
Sea Level Pressure 30.07 in    
Wind  
Wind Speed 8 mph (ESE)    
Max Wind Speed 18 mph    
Max Gust Speed 21 mph    
Visibility 10 miles    
Events      
T = Trace of Precipitation, MM = Missing Value Source: NWS Daily Summary

Daily Weather History Graph

Daily Weather History Graph

Search for Another Location

Airport:

Trip Planner

Search our weather history database for the weather conditions in past years. The results will help you decide how hot, cold, wet, or windy it might be!

Date:

Astronomy

Jan. 25, 2013 Rise Set
Actual Time 7:42 AM MST 4:55 PM MST
Civil Twilight 7:08 AM MST 5:29 PM MST
Nautical Twilight 6:30 AM MST 6:07 PM MST
Astronomical Twilight 5:54 AM MST 6:44 PM MST
Moon 3:55 PM MST (1/25) 6:25 AM MST (1/25)
Length of Visible Light 10h 20m
Length of Day
9h 12m
Waxing Gibbous, 98% of the Moon is Illuminated
Jan 25
Waxing Gibbous
Jan 26
Full
Feb 3
Last Quarter
Feb 10
New
Feb 17
First Quarter

Hourly Weather History & Observations

Time (MST) Temp. Windchill Dew Point Humidity Pressure Visibility Wind Dir Wind Speed Gust Speed Precip Events Conditions
12:53 AM 17.1 °F 7.6 °F 12.9 °F 84% 30.14 in 10.0 mi WSW 6.9 mph - N/A   Clear
1:53 AM 12.9 °F - 10.0 °F 88% 30.15 in 10.0 mi Calm Calm - N/A   Clear
2:53 AM 18.0 °F - 15.1 °F 88% 30.13 in 10.0 mi Calm Calm - N/A   Clear
3:53 AM 12.0 °F 4.1 °F 8.1 °F 84% 30.13 in 10.0 mi Variable 4.6 mph - N/A   Clear
4:53 AM 10.9 °F -0.8 °F 7.0 °F 84% 30.13 in 10.0 mi SE 8.1 mph - N/A   Clear
5:53 AM 15.1 °F 7.7 °F 12.0 °F 88% 30.12 in 10.0 mi East 4.6 mph - N/A   Clear
6:53 AM 12.0 °F 0.5 °F 8.1 °F 84% 30.12 in 10.0 mi ESE 8.1 mph - N/A   Clear
7:53 AM 12.9 °F -0.9 °F 9.0 °F 84% 30.12 in 10.0 mi ESE 11.5 mph - N/A   Clear
8:53 AM 15.1 °F 1.1 °F 10.9 °F 84% 30.12 in 10.0 mi ESE 12.7 mph - N/A   Clear
9:53 AM 16.0 °F 0.6 °F 12.0 °F 84% 30.13 in 10.0 mi ESE 16.1 mph - N/A   Clear
10:53 AM 17.1 °F 1.5 °F 12.9 °F 84% 30.12 in 10.0 mi ESE 17.3 mph - N/A   Clear
11:53 AM 19.0 °F 5.6 °F 14.0 °F 81% 30.10 in 10.0 mi ESE 13.8 mph - N/A   Clear
12:53 PM 19.9 °F 6.2 °F 15.1 °F 81% 30.08 in 10.0 mi East 15.0 mph - N/A   Clear
1:53 PM 21.0 °F 8.1 °F 16.0 °F 81% 30.05 in 10.0 mi ESE 13.8 mph - N/A   Clear
2:53 PM 21.0 °F 10.6 °F 16.0 °F 81% 30.04 in 10.0 mi ESE 9.2 mph - N/A   Clear
3:53 PM 21.0 °F 10.6 °F 16.0 °F 81% 30.04 in 10.0 mi ESE 9.2 mph - N/A   Clear
4:53 PM 19.9 °F 11.1 °F 16.0 °F 85% 30.03 in 10.0 mi ESE 6.9 mph - N/A   Clear
5:53 PM 19.0 °F 8.2 °F 15.1 °F 85% 30.02 in 10.0 mi ESE 9.2 mph - N/A   Clear
6:53 PM 18.0 °F 6.9 °F 14.0 °F 84% 30.01 in 10.0 mi ESE 9.2 mph - N/A   Clear
7:53 PM 17.1 °F 10.0 °F 14.0 °F 88% 30.00 in 10.0 mi SE 4.6 mph - N/A   Clear
8:53 PM 17.1 °F - 14.0 °F 88% 30.00 in 10.0 mi Calm Calm - N/A   Clear
9:53 PM 16.0 °F 10.4 °F 12.9 °F 88% 29.99 in 9.0 mi SE 3.5 mph - N/A   Clear
10:53 PM 15.1 °F 5.2 °F 12.0 °F 88% 29.98 in 9.0 mi East 6.9 mph - N/A   Clear
11:53 PM 17.1 °F - 12.9 °F 84% 29.98 in 8.0 mi Calm Calm - N/A   Clear